TimeHST,TemperatureF,Dew PointF,Humidity,Sea Level PressureIn,VisibilityMPH,Wind Direction,Wind SpeedMPH,Gust SpeedMPH,PrecipitationIn,Events,Conditions,WindDirDegrees,DateUTC
12:06 AM,73.4,69.8,88,30.16,10.0,NE,20.7,-,N/A,,Mostly Cloudy,50,2013-06-23 10:06:00
12:53 AM,73.9,69.1,85,30.14,10.0,NE,19.6,28.8,N/A,,Mostly Cloudy,50,2013-06-23 10:53:00
1:36 AM,71.6,69.8,94,30.13,10.0,NE,18.4,-,0.00,Rain,Light Rain,50,2013-06-23 11:36:00
1:53 AM,73.0,70.0,90,30.12,9.0,NE,20.7,29.9,0.00,,Overcast,50,2013-06-23 11:53:00
2:38 AM,75.2,69.8,83,30.12,10.0,ENE,18.4,-,0.00,,Overcast,60,2013-06-23 12:38:00
2:53 AM,73.9,70.0,87,30.12,10.0,NE,18.4,-,0.00,Rain,Light Rain,50,2013-06-23 12:53:00
3:53 AM,73.0,69.1,87,30.11,10.0,NE,19.6,-,0.00,,Overcast,50,2013-06-23 13:53:00
4:53 AM,73.0,69.1,87,30.10,8.0,NE,18.4,-,0.01,Rain,Light Rain,40,2013-06-23 14:53:00
5:29 AM,73.4,69.8,88,30.12,10.0,NE,19.6,26.5,0.01,,Mostly Cloudy,50,2013-06-23 15:29:00
5:38 AM,73.4,69.8,88,30.12,10.0,NE,18.4,-,0.01,,Mostly Cloudy,50,2013-06-23 15:38:00
5:53 AM,73.9,69.1,85,30.12,10.0,NE,19.6,-,0.01,,Mostly Cloudy,50,2013-06-23 15:53:00
6:05 AM,73.4,69.8,88,30.12,10.0,ENE,19.6,-,N/A,,Scattered Clouds,60,2013-06-23 16:05:00
6:53 AM,73.0,68.0,84,30.13,10.0,ENE,26.5,32.2,N/A,,Partly Cloudy,70,2013-06-23 16:53:00
7:29 AM,71.6,69.8,94,30.15,2.5,ENE,23.0,27.6,0.02,Rain,Heavy Rain,70,2013-06-23 17:29:00
7:35 AM,71.6,69.8,94,30.15,3.0,ENE,21.9,28.8,0.02,Rain,Light Rain,60,2013-06-23 17:35:00
7:53 AM,73.9,68.0,82,30.14,10.0,ENE,18.4,-,0.02,,Overcast,60,2013-06-23 17:53:00
8:53 AM,75.0,70.0,84,30.15,10.0,NE,15.0,-,N/A,,Scattered Clouds,40,2013-06-23 18:53:00
9:05 AM,73.4,69.8,88,30.16,4.0,ENE,23.0,31.1,0.01,Rain,Rain,60,2013-06-23 19:05:00
9:14 AM,73.4,69.8,88,30.16,6.0,ENE,16.1,28.8,0.02,Rain,Light Rain,60,2013-06-23 19:14:00
9:53 AM,75.9,71.1,85,30.16,10.0,NE,11.5,-,0.02,,Mostly Cloudy,50,2013-06-23 19:53:00
10:53 AM,77.0,71.1,82,30.16,8.0,NE,12.7,-,0.00,Rain,Light Rain,50,2013-06-23 20:53:00
11:01 AM,75.2,71.6,89,30.17,7.0,ENE,17.3,31.1,0.00,Rain,Light Rain,60,2013-06-23 21:01:00
11:04 AM,75.2,71.6,89,30.17,7.0,NE,17.3,-,0.00,Rain,Light Rain,50,2013-06-23 21:04:00
11:40 AM,75.2,71.6,89,30.17,7.0,NE,15.0,-,0.00,Rain,Light Rain,50,2013-06-23 21:40:00
11:44 AM,77.0,73.4,89,30.17,10.0,ENE,12.7,-,0.00,,Overcast,60,2013-06-23 21:44:00
11:53 AM,78.1,72.0,81,30.16,10.0,ENE,15.0,-,0.00,,Mostly Cloudy,60,2013-06-23 21:53:00
12:02 PM,80.6,71.6,74,30.16,10.0,NE,15.0,-,N/A,,Scattered Clouds,50,2013-06-23 22:02:00
12:25 PM,78.8,71.6,78,30.17,10.0,NE,15.0,-,N/A,,Mostly Cloudy,40,2013-06-23 22:25:00
12:53 PM,79.0,70.0,74,30.16,10.0,NNE,13.8,-,N/A,,Mostly Cloudy,30,2013-06-23 22:53:00
1:39 PM,80.6,69.8,70,30.15,10.0,NE,15.0,-,N/A,,Mostly Cloudy,50,2013-06-23 23:39:00
1:49 PM,80.6,69.8,70,30.16,10.0,ENE,16.1,-,N/A,,Scattered Clouds,60,2013-06-23 23:49:00
1:53 PM,80.1,69.1,69,30.15,10.0,ENE,15.0,-,N/A,,Mostly Cloudy,60,2013-06-23 23:53:00
2:18 PM,80.6,68.0,65,30.14,10.0,ENE,16.1,-,N/A,,Mostly Cloudy,60,2013-06-24 00:18:00
2:53 PM,78.1,69.1,74,30.14,10.0,ENE,18.4,-,0.00,,Mostly Cloudy,60,2013-06-24 00:53:00
3:53 PM,78.1,69.1,74,30.12,10.0,NE,15.0,-,N/A,,Overcast,50,2013-06-24 01:53:00
4:53 PM,75.9,70.0,82,30.11,10.0,NE,16.1,-,N/A,,Overcast,40,2013-06-24 02:53:00
5:51 PM,75.2,69.8,83,30.12,10.0,NE,18.4,-,0.01,,Overcast,40,2013-06-24 03:51:00
5:53 PM,75.0,70.0,84,30.11,10.0,NE,19.6,-,0.01,,Overcast,40,2013-06-24 03:53:00
6:00 PM,75.2,69.8,83,30.12,10.0,NE,16.1,-,N/A,,Overcast,40,2013-06-24 04:00:00
6:32 PM,75.2,71.6,89,30.13,10.0,NE,18.4,-,0.00,,Mostly Cloudy,50,2013-06-24 04:32:00
6:51 PM,73.4,69.8,88,30.13,10.0,NE,17.3,-,0.00,,Scattered Clouds,50,2013-06-24 04:51:00
6:53 PM,73.9,69.1,85,30.13,10.0,NE,17.3,-,0.00,,Scattered Clouds,50,2013-06-24 04:53:00
7:46 PM,73.4,69.8,88,30.15,5.0,NE,20.7,27.6,0.00,Rain,Rain,50,2013-06-24 05:46:00
7:53 PM,73.0,70.0,90,30.14,4.0,NE,16.1,-,0.04,Rain,Light Rain,40,2013-06-24 05:53:00
8:34 PM,73.4,69.8,88,30.16,10.0,NE,18.4,-,0.00,,Mostly Cloudy,40,2013-06-24 06:34:00
8:53 PM,73.9,70.0,87,30.15,10.0,ENE,18.4,-,0.00,,Overcast,60,2013-06-24 06:53:00
9:32 PM,73.4,69.8,88,30.17,10.0,NE,17.3,-,N/A,,Mostly Cloudy,50,2013-06-24 07:32:00
9:39 PM,73.4,69.8,88,30.17,8.0,ENE,20.7,25.3,N/A,,Overcast,70,2013-06-24 07:39:00
9:53 PM,73.0,70.0,90,30.16,10.0,ENE,17.3,-,0.00,,Overcast,60,2013-06-24 07:53:00
10:53 PM,73.9,70.0,87,30.16,10.0,ENE,18.4,-,N/A,,Overcast,60,2013-06-24 08:53:00
11:26 PM,75.2,69.8,83,30.17,10.0,NE,17.3,-,N/A,,Overcast,50,2013-06-24 09:26:00
11:53 PM,75.0,69.1,82,30.15,10.0,NE,16.1,-,N/A,,Mostly Cloudy,50,2013-06-24 09:53:00